AP-NC--AKQ-NC NE Weather Roundup, NC

000

ASUS41 KAKQ 151515

RWRAKQ

REGIONAL WEATHER ROUNDUP

NATIONAL WEATHER SERVICE WAKEFIELD VA

1100 AM EDT WED JUL 15 2015

Note: "fair" indicates few or no clouds below 12,000 feet with no

significant weather and/or obstructions to visibility. * Denotes

station may not report precipitation (e.g., rain,snow,etc.),

thunder or fog.

NCZ012>017-030>032-151600-

NORTH CENTRAL AND EASTERN NORTH CAROLINA

CITY SKY/WX TMP DP RH WIND PRES REMARKS

ROANOKE RAPIDS FAIR 82 68 61 W7 29.72S

RALEIGH MOSUNNY 84 66 54 NW9 29.77R

ELIZABETH CITY PTSUNNY 84 71 65 W12 29.70R

AHOSKIE* MOSUNNY 82 69 65 NW3 29.72R

EDENTON* N/A 83 72 70 W9 29.71S

CURRITUCK* PTSUNNY 83 68 61 W10 29.70S

KILL DEVIL HLS PTSUNNY 85 73 67 W8 29.69R

MANTEO PTSUNNY 82 73 72 W14G21 29.71R

CAPE HATTERAS PTSUNNY 81 73 76 SW10 29.73S

TARBORO* N/A 85 68 56 W9 29.73S

GOLDSBORO SUNNY 85 69 60 W13 29.72F

WASHINGTON MOSUNNY 84 71 64 W7 29.72F

GREENVILLE MOSUNNY 82 70 65 W9 29.75S

NEW BERN PTSUNNY 85 72 65 W12 29.73F

WILMINGTON PTSUNNY 86 70 58 W17G25 29.74F

$$

Delivered by Weather Underground Inc. Wed Jul 15 2015 11:15AM EDT